Location: Arroyo Retuerta
(40.5469°N, 4.3534°W)
Time: 06:02:27
(UTC+00:00)

Cosmos 371 Rocket - Pass Details

Date: 01 June 2020
Orbit: 683 x 699 km, 74.0° (Epoch: 05 July)

Event Time Altitude Azimuth Distance (km) Brightness Sun altitude
Rises 20:35:45 0° 195° (SSW) 3,046 6.4 -9.1°
Reaches altitude 10° 20:38:02 10° 195° (SSW) 2,137 5.6 -9.5°
Maximum altitude 20:42:51 82° 109° (ESE) 705 3.3 -10.2°
Drops below altitude 10° 20:47:44 10° 21° (NNE) 2,162 6.1 -10.8°
Sets 20:50:04 0° 21° (NNE) 3,086 6.9 -11.2°
